EW7736 Weather Reports


Display with metric or nautical units.
time (UTC)temp
F
wind
direction
speed
MPH
gust
MPH
rain 1hr
in
rain 24hr
in
rain mn
in
humidity
%
barometer
mb
20260509030407 52 156 0.0 0.0 0.00 0.00 0.00 22 1011.2
20260509025338 52 156 0.0 0.0 0.00 0.00 0.00 29 1011.3
20260509024310 52 115 0.0 0.0 0.00 0.00 0.00 31 1011.3
20260509023328 52 115 0.0 0.0 0.00 0.00 0.00 26 1011.4
20260509020106 53 269 0.0 0.0 0.00 0.00 0.00 42 1011.2
20260509015104 53 269 0.0 0.0 0.00 0.00 0.00 46 1011.1
20260509014056 53 269 0.0 0.0 0.00 0.00 0.00 49 1010.9
20260509011932 54 269 0.0 0.0 0.00 0.00 0.00 54 1010.6
20260509010933 54 269 0.0 0.0 0.00 0.00 0.00 56 1010.2
20260509005912 54 269 0.0 0.0 0.00 0.00 0.00 59 1010.2
20260509004902 54 269 0.0 0.0 0.00 0.00 0.00 59 1010.0
20260509002706 55 269 0.0 0.0 0.00 0.00 0.00 61 1010.0
20260509001654 55 269 0.0 0.0 0.00 0.00 0.00 61 1010.1
20260509000647 55 178 0.0 0.0 0.00 0.00 0.00 61 1010.0
20260508234526 56 178 0.0 0.0 0.00 0.00 0.00 60 1010.2
20260508233517 56 178 0.0 0.0 0.00 0.00 0.00 61 1010.2
20260508232510 57 178 0.0 0.0 0.00 0.00 0.00 62 1010.2
20260508231436 57 178 0.0 0.0 0.00 0.00 0.00 61 1010.1
20260508230426 58 178 0.0 0.0 0.00 0.00 0.00 60 1010.2
20260508225443 58 178 0.0 0.0 0.00 0.00 0.00 59 1010.2
20260508224436 59 178 0.0 0.0 0.00 0.00 0.00 58 1010.3
20260508222313 59 178 0.0 1.0 0.00 0.00 0.00 57 1010.1
20260508221336 60 236 0.0 0.0 0.00 0.00 0.00 56 1010.0
20260508220336 60 346 0.0 1.0 0.00 0.00 0.00 55 1010.1
20260508215322 60 102 0.0 0.0 0.00 0.00 0.00 54 1010.1
20260508214253 60 102 0.0 0.0 0.00 0.00 0.00 54 1010.3
20260508213224 60 102 0.0 0.0 0.00 0.00 0.00 54 1010.3
20260508212249 60 102 0.0 0.0 0.00 0.00 0.00 53 1010.4
20260508211224 59 102 0.0 0.0 0.00 0.00 0.00 56 1010.6
20260508205122 59 102 0.0 0.0 0.00 0.00 0.00 58 1010.9
20260508204112 58 102 0.0 0.0 0.00 0.00 0.00 58 1011.1
20260508203047 57 102 0.0 0.0 0.00 0.00 0.00 59 1011.2
20260508202055 57 102 0.0 0.0 0.00 0.00 0.00 58 1011.4
20260508201048 57 102 0.0 0.0 0.00 0.00 0.00 58 1011.6
20260508200108 57 102 0.0 0.0 0.00 0.00 0.00 59 1011.8
20260508195104 57 102 1.0 6.0 0.00 0.00 0.00 59 1012.0
20260508194051 57 91 1.0 5.0 0.00 0.00 0.00 57 1012.2
20260508193113 57 98 1.0 7.0 0.00 0.00 0.00 58 1012.3
20260508192115 57 95 2.0 7.0 0.00 0.00 0.00 56 1012.3
20260508191117 58 110 1.0 5.0 0.00 0.00 0.00 55 1012.4
20260508184944 58 34 2.0 7.0 0.00 0.00 0.00 54 1012.6
20260508184008 58 114 3.0 12.0 0.00 0.00 0.00 54 1012.5
20260508181911 59 115 4.0 9.0 0.00 0.00 0.00 53 1012.4
20260508180921 59 8 3.0 12.0 0.00 0.00 0.00 54 1012.4
20260508175920 59 91 5.0 12.0 0.00 0.00 0.00 52 1012.3
20260508174913 60 90 4.0 13.0 0.00 0.00 0.00 53 1012.4
20260508173931 59 30 5.0 13.0 0.00 0.00 0.00 54 1012.3
20260508170718 60 98 5.0 11.0 0.00 0.00 0.00 51 1012.6
20260508165739 59 23 6.0 15.0 0.00 0.00 0.00 52 1012.8
20260508164721 59 77 6.0 17.0 0.00 0.00 0.00 53 1012.9
20260508163716 59 90 6.0 17.0 0.00 0.00 0.00 52 1012.7
20260508162706 59 96 5.0 12.0 0.00 0.00 0.00 55 1012.8
20260508161635 59 89 6.0 12.0 0.00 0.00 0.00 52 1013.0
20260508160612 60 89 4.0 9.0 0.00 0.00 0.00 50 1012.9
20260508155614 59 46 3.0 16.0 0.00 0.00 0.00 52 1013.0
20260508154611 59 96 6.0 16.0 0.00 0.00 0.00 52 1013.0
20260508153538 59 27 4.0 14.0 0.00 0.00 0.00 54 1013.2
20260508152544 58 103 7.0 14.0 0.00 0.00 0.00 53 1013.1
20260508151548 59 96 4.0 11.0 0.00 0.00 0.00 51 1013.1
20260508150538 58 98 4.0 11.0 0.00 0.00 0.00 52 1013.1
20260508145509 58 98 4.0 10.0 0.00 0.00 0.00 51 1013.2
20260508144511 57 57 3.0 12.0 0.00 0.00 0.00 51 1013.2
20260508143530 57 104 4.0 12.0 0.00 0.00 0.00 53 1013.2
20260508142539 57 94 4.0 9.0 0.00 0.00 0.00 52 1013.3
20260508140429 55 2 3.0 10.0 0.00 0.00 0.00 52 1013.5
20260508135418 54 38 3.0 10.0 0.00 0.00 0.00 54 1013.5
20260508134347 53 99 2.0 7.0 0.00 0.00 0.00 55 1013.6
20260508133339 52 92 3.0 9.0 0.00 0.00 0.00 57 1013.7
20260508132354 51 46 3.0 9.0 0.00 0.00 0.00 57 1013.7
20260508131406 51 89 2.0 12.0 0.00 0.00 0.00 58 1013.8
20260508124056 49 102 2.0 9.0 0.00 0.00 0.00 60 1013.7
20260508123105 49 51 2.0 9.0 0.00 0.00 0.00 59 1013.7
20260508122101 48 48 1.0 4.0 0.00 0.00 0.00 60 1013.5
20260508121104 47 56 1.0 4.0 0.00 0.00 0.00 62 1013.6
20260508120124 46 46 0.0 3.0 0.00 0.00 0.00 62 1013.6
20260508115125 46 52 1.0 3.0 0.00 0.00 0.00 62 1013.6
20260508114123 46 55 1.0 5.0 0.00 0.00 0.00 62 1013.6
20260508113100 45 57 1.0 5.0 0.00 0.00 0.00 62 1013.4
20260508112054 44 60 0.0 3.0 0.00 0.00 0.00 63 1013.3
20260508111034 44 49 0.0 2.0 0.00 0.00 0.00 63 1013.2
20260508110014 43 49 0.0 1.0 0.00 0.00 0.00 63 1013.2
20260508105009 43 49 0.0 0.0 0.00 0.00 0.00 63 1013.1
20260508104000 43 49 0.0 0.0 0.00 0.00 0.00 63 1013.1
20260508102945 43 49 0.0 0.0 0.00 0.00 0.00 62 1013.1
20260508102009 42 49 0.0 0.0 0.00 0.00 0.00 62 1013.1
20260508100949 42 49 0.0 0.0 0.00 0.00 0.00 61 1012.9
20260508094846 42 49 0.0 0.0 0.00 0.00 0.00 62 1012.9
20260508092712 43 49 0.0 0.0 0.00 0.00 0.00 63 1012.8
20260508091653 43 49 0.0 1.0 0.00 0.00 0.00 63 1012.8
20260508090703 43 49 0.0 2.0 0.00 0.00 0.00 62 1012.8
20260508085645 42 49 0.0 1.0 0.00 0.00 0.00 61 1013.0
20260508084700 42 49 0.0 0.0 0.00 0.00 0.00 61 1012.9
20260508083700 42 49 0.0 0.0 0.00 0.00 0.00 61 1012.8
20260508082650 41 49 0.0 0.0 0.00 0.00 0.00 61 1012.8
20260508081634 41 49 0.0 0.0 0.00 0.00 0.00 62 1012.7
20260508080625 42 49 0.0 0.0 0.00 0.00 0.00 62 1012.9
20260508075608 42 49 0.0 0.0 0.00 0.00 0.00 62 1012.8
20260508074627 42 49 0.0 0.0 0.00 0.00 0.00 62 1012.8
20260508073651 42 49 0.0 0.0 0.00 0.00 0.00 62 1012.8
20260508072704 42 49 0.0 0.0 0.00 0.00 0.00 62 1012.7
20260508071655 42 49 0.0 0.0 0.00 0.00 0.00 62 1012.8
20260508070635 42 49 0.0 0.0 0.00 0.00 0.00 62 1013.0
20260508065610 42 49 0.0 0.0 0.00 0.00 0.00 62 1013.0
20260508064544 43 49 0.0 0.0 0.00 0.00 0.00 62 1013.1
20260508063512 43 49 0.0 0.0 0.00 0.00 0.00 62 1013.1
20260508062530 42 103 0.0 0.0 0.00 0.00 0.00 62 1013.2
20260508061539 42 103 0.0 0.0 0.00 0.00 0.00 63 1013.2
20260508060509 43 103 0.0 0.0 0.00 0.00 0.00 63 1013.3
20260508055524 43 103 0.0 0.0 0.00 0.00 0.00 62 1013.3
20260508054457 43 103 0.0 0.0 0.00 0.00 0.00 62 1013.4
20260508053501 44 103 0.0 0.0 0.00 0.00 0.00 62 1013.5
20260508052433 44 103 0.0 0.0 0.00 0.00 0.00 62 1013.6
20260508051453 43 103 0.0 0.0 0.00 0.00 0.00 63 1013.6
20260508050505 42 103 0.0 0.0 0.00 0.00 0.00 63 1013.6
20260508045506 43 103 0.0 0.0 0.00 0.00 0.00 63 1013.5
20260508043324 44 103 0.0 0.0 0.00 0.00 0.00 62 1013.5
20260508042308 45 103 0.0 0.0 0.00 0.00 0.00 60 1013.5
20260508041303 47 103 0.0 0.0 0.00 0.00 0.00 59 1013.4
20260508040234 47 103 0.0 0.0 0.00 0.00 0.00 58 1013.3
20260508035256 47 103 0.0 0.0 0.00 0.00 0.00 59 1013.3
20260508031908 48 102 0.0 2.0 0.00 0.00 0.00 56 1013.3